Aeroporto :
LOGIN :

Iscrizione | Disclaimer

   EN    FR    IT 

 










Sommario :    VFR   VFR Marginale   IFR   IFR Intensivo   IFR Molto Intensivo
Visibilità : 
Base nubi : 
>= 8 km
>= 3000ft
5 / 8 km
1000 / 3000 ft
1500m / 5 km
500 / 1000 ft
800 / 1500m
200 / 500 ft
< 800m
< 200 ft
Simboli :   Temporali  Nebbia  Neve Forte  Precipitazioni Forti  Vento > 20 kt
SIGMETs :   Varie  Temporali  Ghiacco  Turbolenza  Onda orograficha  Ceneri Vulcaniche







- Altitudine del aeroporto : 1411 ft
- Codice IATA : ZHI


LSZG - Grenchen

ULTIMO METAR :
  • 222250Z AUTO 04002KT CAVOK 10/07 Q1020

METARs OBSOLETI :
  • 222220Z AUTO 09002KT 9999 NCD 10/09 Q1020
  • 222150Z AUTO 05002KT CAVOK 11/08 Q1020
  • 222120Z AUTO VRB01KT 9999 NSC 11/08 Q1020
  • 222050Z AUTO 09002KT 9999 BKN060 BKN130 13/08 Q1020
  • 222020Z AUTO 05003KT 9999 OVC060 12/08 Q1019

TAF TAF LSZG
Valido dal 22 a 15 ore il 23 a 00 ore UTC


221425Z 2215/2224 VRB02KT 9999 SCT050 SCT250
PROB40 2215/2221 34012G25KT CAVOK
PROB40 2221/2224 4500 BR
ATIS : +41 32 396 96 33
Nessun NOTAM noto per questo aeroporto.



MetMap, La meteo Aeronautica in un colpo d'occhio ! - Copyright ORBIFLY Dicembre 2007 - Disclaimer

ORBIFLY MET'MAP TEAM :

Programmazione e sviluppo : Alexandra Zaïnal
Concezione e sviluppo : Baudouin d'Aumeries
Co-Programmazione e sviluppo : Marc-Olivier Méhu
Supporto tecnico e logistico : Manuel Goepfert
Aiuto per la traduzione : Arnaldo La Scala

Contatto : metmap@orbifly.com




FONTI E CREDITI :

   NOAA